Eveleth, MN

7:14 AM CDT on August 17, 2017 (GMT -0500)
Eveleth-Virginia Municipal

Weather History for KEVM - February, 2013

Change the Weather History Date:

Friday, February 8, 2013

  Actual Average Record
Temperature  
Mean Temperature 16 °F -  
Max Temperature 23 °F 23 °F 49 °F (1991)
Min Temperature 8 °F 2 °F -23 °F (2014)
Degree Days  
Heating Degree Days 50    
Moisture  
Dew Point 11 °F    
Average Humidity 84    
Maximum Humidity 93    
Minimum Humidity 68    
Precipitation  
Precipitation 0.00 in - - ()
Sea Level Pressure  
Sea Level Pressure 30.28 in    
Wind  
Wind Speed 2 mph (SE)    
Max Wind Speed 10 mph    
Max Gust Speed -    
Visibility 9 miles    
Events Snow    
Averages and records for this station are not official NWS values.
T = Trace of Precipitation, MM = Missing Value Source: NWS Daily Summary

Daily Weather History Graph

Daily Weather History Graph

Search for Another Location

Airport or City:

Trip Planner

Search our weather history database for the weather conditions in past years. The results will help you decide how hot, cold, wet, or windy it might be!

Date:

Astronomy

Feb. 08, 2013 Rise Set
Actual Time 7:25 AM CST 5:23 PM CST
Civil Twilight 6:53 AM CST 5:55 PM CST
Nautical Twilight 6:17 AM CST 6:31 PM CST
Astronomical Twilight 5:41 AM CST 7:07 PM CST
Moon 5:58 AM CST (2/8) 3:55 PM CST (2/8)
Length of Visible Light 11h 01m
Length of Day
9h 57m
Waning Crescent, 3% of the Moon is Illuminated
Feb 8
Waning Crescent
Feb 10
New
Feb 17
First Quarter
Feb 25
Full
Mar 4
Last Quarter

Hourly Weather History & Observations

Time (CST) Temp. Windchill Dew Point Humidity Pressure Visibility Wind Dir Wind Speed Gust Speed Precip Events Conditions
12:09 AM 15.8 °F - 12.2 °F 86% 30.28 in 10.0 mi Calm Calm - N/A Snow Light Snow
12:29 AM 15.8 °F 10.2 °F 12.2 °F 86% 30.27 in 10.0 mi ENE 3.5 mph - N/A Snow Light Snow
12:49 AM 14.0 °F - 10.4 °F 86% 30.27 in 10.0 mi Calm Calm - N/A Snow Light Snow
1:09 AM 14.0 °F - 12.2 °F 93% 30.28 in 10.0 mi Calm Calm - N/A Snow Light Snow
1:30 AM 14.0 °F 6.5 °F 12.2 °F 93% 30.28 in 10.0 mi NE 4.6 mph - N/A Snow Light Snow
1:49 AM 12.2 °F - 10.4 °F 92% 30.28 in 10.0 mi Calm Calm - N/A Snow Light Snow
2:09 AM 12.2 °F 6.1 °F 10.4 °F 92% 30.29 in 10.0 mi NNE 3.5 mph - N/A Snow Light Snow
2:30 AM 12.2 °F - 10.4 °F 92% 30.29 in 10.0 mi Calm Calm - N/A   Overcast
2:49 AM 10.4 °F - 6.8 °F 85% 30.29 in 10.0 mi Calm Calm - N/A   Overcast
3:30 AM 8.6 °F - 5.0 °F 85% 30.29 in 10.0 mi Calm Calm - N/A   Overcast
3:49 AM 10.4 °F - 6.8 °F 85% 30.28 in 10.0 mi Calm Calm - N/A   Overcast
4:09 AM 8.6 °F - 3.2 °F 79% 30.29 in 10.0 mi Calm Calm - N/A Snow Light Snow
4:30 AM 10.4 °F - 6.8 °F 85% 30.30 in 10.0 mi Calm Calm - N/A Snow Light Snow
4:49 AM 10.4 °F - 6.8 °F 85% 30.30 in 10.0 mi Calm Calm - N/A   Overcast
5:09 AM 10.4 °F - 8.6 °F 92% 30.30 in 10.0 mi Calm Calm - N/A   Overcast
5:30 AM 10.4 °F - 8.6 °F 92% 30.30 in 10.0 mi Calm Calm - N/A Snow Light Snow
5:49 AM 12.2 °F - 10.4 °F 92% 30.31 in 10.0 mi Calm Calm - N/A   Overcast
6:10 AM 12.2 °F - 8.6 °F 85% 30.31 in 10.0 mi Calm Calm - N/A   Overcast
6:29 AM 12.2 °F - 8.6 °F 85% 30.31 in 10.0 mi Calm Calm - N/A   Overcast
6:49 AM 12.2 °F - 10.4 °F 92% 30.31 in 10.0 mi Calm Calm - N/A Snow Light Snow
7:10 AM 12.2 °F - 10.4 °F 92% 30.32 in 10.0 mi Calm Calm - N/A   Overcast
7:29 AM 12.2 °F - 10.4 °F 92% 30.32 in 10.0 mi Calm Calm - N/A   Overcast
7:50 AM 12.2 °F - 10.4 °F 92% 30.32 in 7.0 mi Calm Calm - N/A Snow Light Snow
8:09 AM 12.2 °F - 10.4 °F 92% 30.33 in 7.0 mi Calm Calm - N/A Snow Light Snow
8:30 AM 12.2 °F - 10.4 °F 92% 30.34 in 5.0 mi Calm Calm - N/A Snow Light Snow
8:49 AM 12.2 °F - 10.4 °F 92% 30.34 in 4.0 mi Calm Calm - N/A Snow Light Snow
9:09 AM 12.2 °F - 10.4 °F 92% 30.34 in 4.0 mi Calm Calm - N/A Snow Light Snow
9:30 AM 14.0 °F - 10.4 °F 86% 30.34 in 4.0 mi Calm Calm - N/A Snow Light Snow
9:49 AM 15.8 °F - 12.2 °F 86% 30.33 in 3.0 mi Calm Calm - N/A Snow Light Snow
10:09 AM 17.6 °F 12.3 °F 14.0 °F 86% 30.33 in 4.0 mi SSE 3.5 mph - N/A Snow Light Snow
10:54 AM 21.2 °F 11.7 °F 14.0 °F 74% 30.34 in 7.0 mi South 8.1 mph - N/A Snow Light Snow
11:09 AM 21.2 °F 11.7 °F 14.0 °F 74% 30.34 in 7.0 mi SSE 8.1 mph - N/A Snow Light Snow
11:30 AM 21.2 °F 12.6 °F 14.0 °F 74% 30.33 in 10.0 mi South 6.9 mph - N/A Snow Light Snow
11:49 AM 21.2 °F 12.6 °F 12.2 °F 68% 30.33 in 10.0 mi South 6.9 mph - N/A Snow Light Snow
12:09 PM 21.2 °F 11.7 °F 14.0 °F 74% 30.32 in 10.0 mi South 8.1 mph - N/A Snow Light Snow
12:30 PM 21.2 °F 11.7 °F 14.0 °F 74% 30.32 in 10.0 mi South 8.1 mph - N/A Snow Light Snow
12:49 PM 23.0 °F 13.9 °F 14.0 °F 68% 30.31 in 10.0 mi SSE 8.1 mph - N/A   Overcast
1:09 PM 23.0 °F 13.1 °F 14.0 °F 68% 30.30 in 10.0 mi SSE 9.2 mph - N/A   Overcast
1:30 PM 23.0 °F 13.1 °F 14.0 °F 68% 30.30 in 10.0 mi SSW 9.2 mph - N/A   Overcast
1:49 PM 23.0 °F 12.4 °F 14.0 °F 68% 30.29 in 10.0 mi South 10.4 mph - N/A   Overcast
2:09 PM 21.2 °F 10.1 °F 14.0 °F 74% 30.29 in 10.0 mi SE 10.4 mph - N/A   Overcast
2:30 PM 21.2 °F 11.7 °F 14.0 °F 74% 30.29 in 10.0 mi SSE 8.1 mph - N/A   Overcast
2:49 PM 21.2 °F 12.6 °F 14.0 °F 74% 30.28 in 10.0 mi SE 6.9 mph - N/A   Overcast
3:09 PM 21.2 °F 12.6 °F 14.0 °F 74% 30.28 in 10.0 mi SSE 6.9 mph - N/A Snow Light Snow
3:30 PM 21.2 °F 12.6 °F 14.0 °F 74% 30.27 in 10.0 mi SSE 6.9 mph - N/A   Overcast
3:49 PM 21.2 °F 10.1 °F 14.0 °F 74% 30.27 in 10.0 mi SSE 10.4 mph - N/A   Overcast
4:09 PM 21.2 °F 12.6 °F 14.0 °F 74% 30.26 in 10.0 mi SSE 6.9 mph - N/A   Overcast
4:29 PM 21.2 °F 12.6 °F 14.0 °F 74% 30.25 in 10.0 mi SE 6.9 mph - N/A   Overcast
4:49 PM 21.2 °F 10.9 °F 14.0 °F 74% 30.25 in 10.0 mi SE 9.2 mph - N/A   Overcast
5:09 PM 19.4 °F 10.4 °F 14.0 °F 80% 30.24 in 10.0 mi SSE 6.9 mph - N/A   Overcast
5:30 PM 19.4 °F 10.4 °F 14.0 °F 80% 30.25 in 10.0 mi SE 6.9 mph - N/A   Mostly Cloudy
5:49 PM 19.4 °F 11.5 °F 14.0 °F 80% 30.25 in 10.0 mi SE 5.8 mph - N/A   Overcast
6:09 PM 17.6 °F 9.3 °F 14.0 °F 86% 30.24 in 10.0 mi SE 5.8 mph - N/A   Scattered Clouds
6:30 PM 17.6 °F 12.3 °F 14.0 °F 86% 30.25 in 10.0 mi ESE 3.5 mph - N/A   Clear
6:49 PM 15.8 °F 10.2 °F 12.2 °F 86% 30.24 in 10.0 mi ESE 3.5 mph - N/A   Clear
7:09 PM 15.8 °F 10.2 °F 12.2 °F 86% 30.24 in 10.0 mi ESE 3.5 mph - N/A   Clear
7:30 PM 15.8 °F 10.2 °F 12.2 °F 86% 30.24 in 10.0 mi ESE 3.5 mph - N/A   Clear
7:49 PM 14.0 °F 8.2 °F 12.2 °F 93% 30.23 in 10.0 mi ESE 3.5 mph - N/A   Clear
8:09 PM 14.0 °F - 10.4 °F 86% 30.23 in 10.0 mi Calm Calm - N/A   Clear
8:30 PM 14.0 °F 8.2 °F 10.4 °F 86% 30.22 in 10.0 mi ESE 3.5 mph - N/A   Clear
8:49 PM 14.0 °F 8.2 °F 10.4 °F 86% 30.21 in 10.0 mi East 3.5 mph - N/A   Clear
9:09 PM 12.2 °F - 10.4 °F 92% 30.21 in 10.0 mi Calm Calm - N/A   Scattered Clouds
9:30 PM 12.2 °F - 10.4 °F 92% 30.22 in 10.0 mi Calm Calm - N/A   Mostly Cloudy
9:49 PM 10.4 °F - 6.8 °F 85% 30.21 in 10.0 mi Calm Calm - N/A   Overcast
10:09 PM 12.2 °F - 10.4 °F 92% 30.20 in 10.0 mi Calm Calm - N/A   Mostly Cloudy
10:29 PM 10.4 °F - 8.6 °F 92% 30.19 in 10.0 mi Calm Calm - N/A   Scattered Clouds
10:49 PM 12.2 °F 6.1 °F 10.4 °F 92% 30.19 in 10.0 mi SSE 3.5 mph - N/A   Clear
11:09 PM 12.2 °F 6.1 °F 10.4 °F 92% 30.19 in 10.0 mi SE 3.5 mph - N/A   Clear
11:29 PM 14.0 °F 6.5 °F 12.2 °F 93% 30.19 in 10.0 mi SE 4.6 mph - N/A   Clear
11:50 PM 14.0 °F 6.5 °F 12.2 °F 93% 30.19 in 10.0 mi SE 4.6 mph - N/A   Clear